Wind_Speed
17 16 16 15 14 12 11 11 10 9 8 7 6 6 5 5 6 6 7 7 7 6 5 5 5 5 5 5 5 6 8 9 10 12 13 14 15 17 17 18 19 19 19 18
16 14 14 13 12 11 11 10 9 8 7 6 5 4 4 4 4 5 6 6 6 5 5 5 5 5 5 5 6 7 8 9 10 12 13 14 15 17 17 18 19 19 19 19
14 13 13 13 11 11 10 8 8 7 6 5 4 3 3 3 3 4 4 5 5 4 4 5 5 5 6 6 7 7 8 9 10 12 13 14 15 17 17 18 19 19 19 19
15 14 13 12 11 10 9 8 7 6 4 4 4 2 2 2 3 3 4 4 3 3 4 5 6 6 6 6 7 7 8 9 10 12 13 14 15 17 17 18 19 19 19 19
15 14 14 13 11 10 9 8 6 5 5 4 4 3 2 2 3 3 4 4 4 4 4 5 5 6 6 6 7 7 8 9 10 12 13 14 15 16 17 18 18 18 19 18
15 14 13 12 11 9 8 7 6 6 5 4 3 2 2 2 2 3 4 4 4 4 4 5 5 6 6 7 7 7 8 9 10 11 13 14 15 16 16 17 18 18 18 18
14 13 11 10 9 8 7 6 6 5 4 3 2 2 1 2 3 4 4 4 5 5 5 6 6 6 7 7 8 8 8 9 10 11 13 14 15 16 16 16 17 17 17 17
12 11 10 9 7 6 5 5 4 3 2 2 2 2 2 3 4 5 5 5 6 6 6 7 7 8 8 8 8 9 9 10 10 11 12 13 15 15 15 16 16 16 17 17
10 9 8 7 6 5 4 3 2 1 1 2 2 3 4 5 5 6 6 7 7 7 7 8 8 8 9 9 9 10 10 10 11 12 12 13 14 15 15 15 15 16 16 16
8 7 6 6 5 4 3 2 0 0 1 1 2 4 4 5 6 7 7 8 9 9 9 10 10 10 10 10 11 11 11 11 12 12 13 13 14 14 14 15 15 15 15 15
7 5 5 4 3 2 2 1 1 2 2 2 2 4 5 6 7 8 9 9 10 11 11 11 11 11 12 12 13 12 12 13 13 13 13 14 14 14 14 14 15 15 14 14
5 4 4 3 3 2 2 2 2 3 3 4 5 5 6 7 7 9 10 10 11 12 12 13 13 13 14 14 15 15 14 14 14 14 14 14 14 14 14 14 14 14 14 14
4 4 3 2 2 3 3 3 4 5 5 6 7 7 8 8 9 10 11 12 12 13 13 14 14 15 15 16 16 16 16 16 16 16 16 15 15 15 15 14 14 13 13 13
3 2 2 3 3 4 4 5 5 6 7 8 8 8 9 10 11 12 13 13 14 14 14 15 16 16 17 17 17 18 18 18 18 18 18 17 17 16 15 15 15 14 13 13
2 3 3 4 5 5 6 6 7 7 8 9 9 10 10 11 12 14 14 15 15 16 16 17 17 18 19 19 19 19 19 19 19 19 19 19 19 18 17 16 16 15 14 13
4 4 5 6 6 7 7 7 8 9 10 11 11 12 13 14 15 16 16 17 17 18 19 19 19 20 20 21 21 21 21 21 21 21 21 21 20 19 19 18 17 16 15 14
6 6 7 7 8 9 9 10 11 11 12 13 14 14 15 16 17 18 19 20 20 21 22 22 23 23 23 23 23 23 24 23 23 23 23 23 22 21 21 20 19 18 17 16
7 8 9 10 10 11 11 12 13 14 14 15 16 17 18 19 20 21 22 23 24 24 24 25 25 26 26 26 26 27 27 26 26 26 26 25 25 24 23 22 21 20 19 18
10 10 11 12 12 13 13 14 16 17 17 18 19 20 21 22 23 24 26 27 27 28 28 29 29 30 30 30 30 30 30 30 29 29 29 28 28 27 26 25 24 23 22 21
12 13 14 15 16 16 16 17 18 20 20 22 23 24 25 26 27 28 29 31 32 32 33 33 34 34 34 34 34 33 33 33 33 32 32 31 30 30 29 28 27 25 25 24
15 16 16 18 19 19 20 21 22 23 24 25 26 28 29 30 31 32 33 34 35 36 36 37 38 38 38 38 37 36 36 36 36 35 34 34 33 32 32 31 30 29 27 26
18 19 20 21 22 22 23 24 24 26 27 28 29 31 33 34 35 36 37 38 39 40 41 41 41 41 42 42 41 40 39 39 39 39 37 36 36 36 34 34 33 32 31 29
21 22 23 24 25 26 27 27 28 29 30 32 33 35 36 37 38 40 41 42 42 43 44 44 44 44 44 44 44 43 42 41 41 41 40 40 39 39 38 37 36 35 34 32
25 26 27 27 28 29 29 30 31 32 34 35 37 38 40 41 42 43 44 45 46 47 47 47 47 47 46 46 46 46 45 45 44 44 43 42 42 42 41 40 39 38 37 35
29 30 30 30 31 32 32 33 35 36 37 39 40 41 43 44 45 46 47 48 49 49 49 49 49 49 48 48 47 48 47 47 46 45 45 44 44 44 43 42 42 41 39 38
32 33 33 33 34 35 35 37 38 39 40 41 43 44 45 46 48 49 50 51 51 51 51 51 51 51 50 49 49 48 48 48 47 46 45 45 44 44 44 44 44 44 42 41
Wind_Direction
170 175 177 183 189 196 198 201 205 214 219 229 241 237 242 247 254 260 256 262 261 250 243 242 245 258 275 288 303 313 323 329 333 337 338 338 340 340 339 338 338 337 334 330
162 167 173 178 185 188 186 189 198 208 216 224 233 235 241 247 250 259 261 262 255 249 239 242 252 262 277 293 308 318 325 330 334 337 339 340 342 343 342 342 342 340 337 335
150 153 152 157 164 165 170 178 184 194 202 217 218 230 239 238 246 259 268 264 258 254 253 250 257 265 279 295 308 317 325 331 334 337 339 340 341 343 342 342 342 342 341 339
142 143 146 150 153 155 158 163 172 181 188 185 190 213 230 236 260 264 266 264 263 259 259 260 265 270 282 294 304 314 325 331 336 338 339 339 341 342 342 342 342 343 343 343
135 137 140 144 148 150 154 155 160 163 162 164 174 198 220 241 258 263 264 266 267 270 269 269 268 276 284 291 299 309 321 331 336 338 339 340 341 341 342 343 344 345 346 346
128 130 134 140 145 148 148 149 149 150 153 160 170 189 217 250 280 281 271 275 275 276 273 276 276 277 282 288 294 303 314 325 332 335 337 339 340 341 343 344 345 347 348 349
124 126 130 136 141 144 145 145 149 154 158 163 184 216 245 268 284 288 287 288 288 284 280 278 284 283 283 288 293 300 307 315 323 329 334 337 340 341 343 346 347 348 350 350
122 127 127 132 136 137 142 146 150 158 159 183 220 244 269 280 287 297 296 290 290 289 284 282 284 286 287 291 295 299 302 307 314 322 329 334 338 341 343 345 347 348 350 352
116 118 120 123 126 132 136 138 132 154 202 251 248 269 285 294 303 309 305 295 291 287 286 286 286 286 289 293 295 298 299 302 308 315 322 329 334 339 341 343 345 347 349 350
108 110 108 108 109 118 122 121 101 348 341 295 269 287 301 302 310 312 310 303 294 291 290 289 287 289 291 291 293 295 296 299 304 309 315 321 328 333 336 338 340 343 346 349
99 98 99 90 83 87 79 53 359 339 327 315 290 298 308 315 318 317 314 309 299 293 291 290 289 289 290 290 289 290 292 294 298 302 307 313 319 325 329 332 335 339 342 345
83 81 78 67 52 40 25 9 345 333 333 324 314 311 312 314 312 310 309 307 300 296 294 293 293 293 292 290 289 288 288 290 293 296 300 305 310 315 319 324 329 333 338 341
75 67 57 49 26 8 352 341 330 328 327 323 316 313 315 311 307 306 305 303 300 296 293 290 290 292 292 291 290 290 289 289 290 292 295 297 301 305 309 314 320 324 329 333
60 50 29 8 346 334 331 328 325 322 322 321 318 313 310 308 304 303 303 302 300 297 293 289 286 286 287 288 289 290 290 290 290 291 291 292 293 296 300 305 310 314 318 322
2 350 336 328 321 321 321 318 317 313 314 314 315 314 312 308 304 303 303 302 300 298 295 292 289 287 285 285 286 286 287 288 289 290 289 289 290 291 293 296 299 303 308 311
335 328 323 319 316 316 314 314 312 310 309 310 311 312 310 306 305 304 303 303 301 299 297 294 292 289 287 285 284 284 284 284 285 287 288 287 286 287 288 289 291 293 296 300
323 320 318 318 315 312 313 311 308 308 308 308 308 309 309 308 306 304 303 302 301 299 297 294 292 291 289 286 283 281 281 280 281 282 284 284 283 283 283 284 284 285 287 290
311 311 313 312 310 310 311 309 306 304 305 306 305 305 306 306 305 303 303 301 300 300 298 296 294 292 291 289 286 284 282 280 279 279 279 280 280 280 280 280 279 279 280 282
305 306 306 306 307 307 307 306 304 303 303 303 303 304 303 303 303 303 302 301 301 300 299 297 295 293 291 289 287 285 283 281 279 277 276 276 277 276 276 276 276 275 274 275
300 302 303 303 304 304 304 302 300 300 299 300 302 303 302 301 301 301 300 299 299 299 297 297 295 293 292 290 288 286 284 282 280 277 275 274 274 274 274 273 272 271 270 270
296 298 301 302 302 302 302 301 299 298 299 299 300 300 301 301 300 299 298 297 296 296 296 295 293 291 290 288 287 286 284 281 279 277 275 273 271 271 270 270 270 268 267 266
294 296 298 299 300 301 301 300 299 298 298 299 299 299 299 299 299 298 297 296 296 296 295 294 293 292 290 288 286 285 283 281 279 276 274 271 270 269 268 267 267 266 265 263
293 295 297 298 299 300 300 299 299 298 299 300 301 301 300 299 299 298 297 297 296 296 296 295 294 293 290 288 286 284 283 281 278 276 273 270 267 266 265 265 264 263 262 261
292 294 296 297 298 298 298 298 299 299 300 300 301 301 302 301 299 299 298 297 297 296 296 295 293 292 291 288 286 284 282 280 278 276 273 271 267 265 264 262 261 261 260 259
291 293 295 296 296 296 297 297 298 299 299 300 301 301 302 301 301 300 298 298 298 297 295 294 293 292 291 288 286 285 283 280 278 276 274 271 268 265 263 261 260 258 258 257
290 292 293 293 294 295 296 297 298 298 299 299 300 301 301 301 301 300 299 299 298 298 296 295 294 293 291 289 287 285 283 280 278 276 274 271 268 265 262 259 257 256 255 254
Height
5800 5805 5809 5813 5817 5821 5824 5826 5829 5831 5833 5835 5836 5837 5838 5838 5839 5838 5839 5839 5839 5839 5839 5839 5839 5839 5839 5838 5838 5837 5835 5833 5831 5829 5827 5824 5821 5818 5815 5811 5807 5803 5799 5795
5803 5807 5810 5814 5817 5820 5823 5826 5828 5831 5832 5834 5835 5836 5837 5837 5837 5837 5837 5837 5837 5837 5837 5837 5837 5837 5837 5837 5836 5835 5833 5832 5830 5827 5825 5822 5819 5816 5813 5809 5805 5801 5797 5792
5806 5810 5812 5815 5818 5821 5823 5826 5828 5831 5832 5833 5835 5836 5836 5836 5836 5837 5836 5836 5836 5836 5836 5836 5836 5836 5835 5835 5834 5833 5831 5830 5828 5826 5823 5820 5817 5814 5811 5807 5803 5799 5795 5790
5808 5811 5814 5816 5819 5822 5824 5826 5828 5830 5831 5833 5835 5835 5836 5836 5836 5836 5836 5835 5835 5835 5835 5835 5834 5834 5834 5833 5832 5831 5830 5828 5826 5824 5821 5819 5816 5813 5809 5805 5801 5797 5793 5789
5811 5813 5815 5818 5821 5822 5825 5826 5828 5830 5831 5833 5834 5835 5836 5835 5835 5835 5835 5834 5834 5834 5833 5833 5833 5832 5832 5831 5830 5829 5828 5826 5824 5822 5820 5817 5814 5811 5808 5804 5800 5796 5792 5787
5814 5816 5818 5820 5822 5824 5826 5827 5829 5830 5832 5833 5834 5835 5835 5835 5835 5834 5834 5833 5833 5832 5832 5832 5831 5831 5830 5830 5829 5828 5826 5825 5823 5821 5819 5816 5813 5809 5806 5802 5798 5795 5790 5786
5817 5819 5820 5822 5824 5825 5827 5829 5830 5831 5832 5833 5834 5834 5835 5834 5834 5833 5833 5833 5832 5831 5831 5830 5830 5829 5828 5828 5827 5826 5824 5823 5821 5819 5817 5814 5811 5808 5804 5801 5797 5794 5790 5786
5820 5822 5823 5824 5825 5826 5827 5829 5831 5832 5832 5833 5833 5834 5835 5834 5833 5832 5832 5831 5831 5830 5829 5829 5828 5827 5827 5826 5825 5824 5822 5821 5819 5817 5815 5813 5810 5806 5803 5800 5796 5793 5789 5785
5823 5824 5825 5825 5826 5828 5828 5829 5831 5832 5832 5833 5833 5833 5833 5832 5832 5832 5831 5830 5829 5828 5828 5827 5826 5825 5825 5824 5823 5821 5820 5819 5817 5815 5813 5811 5808 5805 5802 5799 5795 5792 5788 5785
5825 5826 5827 5827 5828 5829 5830 5830 5831 5831 5831 5832 5832 5832 5832 5831 5831 5830 5829 5829 5828 5827 5826 5825 5824 5823 5822 5821 5820 5819 5818 5816 5815 5813 5811 5809 5806 5803 5800 5797 5794 5791 5788 5784
5827 5828 5829 5829 5829 5829 5830 5831 5830 5831 5831 5831 5831 5833 5831 5830 5830 5829 5828 5827 5825 5824 5824 5823 5822 5820 5819 5818 5817 5816 5815 5813 5812 5810 5808 5806 5804 5801 5799 5796 5793 5790 5787 5784
5828 5829 5829 5830 5830 5829 5830 5830 5830 5830 5830 5830 5830 5833 5829 5828 5827 5826 5825 5824 5823 5822 5821 5820 5819 5817 5816 5815 5814 5812 5811 5810 5808 5807 5805 5804 5802 5799 5797 5794 5792 5789 5786 5783
5829 5830 5830 5830 5832 5831 5829 5829 5829 5829 5829 5828 5828 5831 5827 5826 5825 5824 5823 5822 5820 5819 5818 5816 5815 5814 5813 5812 5810 5809 5808 5806 5805 5803 5802 5800 5798 5796 5794 5792 5790 5787 5784 5782
5830 5830 5830 5831 5830 5829 5829 5828 5828 5828 5827 5827 5826 5826 5825 5824 5822 5821 5820 5818 5817 5816 5814 5813 5811 5810 5809 5808 5806 5805 5804 5802 5801 5799 5798 5796 5795 5793 5791 5789 5787 5785 5782 5780
5829 5829 5829 5829 5828 5828 5827 5827 5826 5826 5825 5825 5824 5823 5822 5820 5819 5818 5816 5815 5813 5811 5810 5808 5807 5806 5804 5803 5802 5800 5799 5798 5796 5795 5793 5792 5791 5789 5787 5786 5784 5782 5780 5778
5828 5828 5827 5827 5826 5826 5825 5825 5824 5823 5822 5822 5821 5820 5818 5817 5815 5814 5812 5811 5809 5807 5805 5804 5802 5800 5799 5798 5796 5795 5794 5792 5791 5789 5788 5787 5785 5784 5783 5781 5780 5778 5777 5775
5827 5826 5826 5825 5824 5824 5823 5823 5821 5820 5819 5818 5817 5817 5814 5813 5811 5809 5808 5806 5804 5802 5800 5798 5796 5794 5793 5791 5790 5789 5787 5786 5785 5783 5782 5781 5779 5778 5777 5776 5775 5774 5773 5771
5825 5824 5823 5823 5823 5821 5823 5819 5818 5817 5816 5814 5813 5811 5810 5808 5806 5804 5802 5800 5798 5796 5793 5791 5789 5787 5786 5784 5782 5781 5780 5778 5777 5776 5775 5774 5773 5772 5771 5770 5770 5769 5767 5766
5822 5821 5820 5820 5818 5818 5818 5816 5814 5812 5811 5809 5808 5806 5804 5802 5800 5798 5795 5792 5790 5788 5786 5783 5781 5779 5777 5776 5774 5772 5771 5770 5769 5768 5767 5766 5765 5764 5764 5763 5763 5762 5761 5761
5819 5818 5817 5815 5814 5813 5814 5811 5808 5808 5806 5804 5802 5800 5798 5795 5793 5792 5788 5785 5782 5780 5777 5775 5772 5770 5768 5766 5764 5763 5761 5760 5759 5758 5758 5757 5756 5756 5756 5755 5755 5754 5754 5754
5814 5813 5812 5810 5809 5808 5807 5805 5804 5802 5801 5797 5795 5792 5790 5787 5785 5783 5780 5777 5773 5770 5768 5765 5762 5759 5757 5755 5753 5752 5750 5749 5748 5748 5747 5747 5746 5746 5746 5746 5746 5746 5746 5746
5809 5808 5807 5805 5803 5804 5800 5798 5797 5795 5792 5789 5787 5784 5781 5779 5775 5772 5769 5766 5763 5760 5757 5753 5750 5747 5744 5742 5740 5739 5738 5736 5735 5735 5735 5735 5735 5735 5735 5735 5736 5736 5736 5737
5803 5802 5800 5799 5799 5795 5793 5790 5788 5786 5784 5781 5778 5775 5772 5769 5765 5762 5759 5755 5752 5748 5744 5741 5737 5734 5731 5728 5726 5724 5723 5722 5722 5721 5721 5721 5722 5722 5723 5723 5724 5725 5726 5727
5796 5794 5792 5791 5789 5786 5784 5782 5780 5777 5774 5771 5768 5765 5761 5758 5754 5750 5747 5743 5739 5735 5731 5727 5723 5720 5717 5714 5711 5709 5708 5707 5706 5706 5706 5706 5707 5708 5709 5710 5711 5712 5714 5716
5787 5785 5784 5782 5780 5777 5775 5773 5770 5767 5764 5761 5757 5753 5749 5746 5742 5738 5734 5730 5725 5721 5716 5712 5708 5704 5701 5698 5695 5693 5691 5690 5690 5690 5689 5690 5690 5691 5693 5695 5697 5699 5701 5703
5777 5776 5774 5773 5770 5768 5766 5762 5760 5756 5753 5750 5746 5742 5737 5733 5729 5724 5720 5715 5710 5706 5701 5697 5692 5688 5684 5681 5678 5676 5674 5672 5672 5672 5672 5673 5673 5675 5676 5679 5681 5684 5687 5689